カタログに戻る

SL-8 R/B

運用中PO
NORAD 35637·ROCKET BODY·🇷🇺 Russia

打ち上げ Jul 21, 2009 から Plesetsk Cosmodrome

Loading…

次のパス (今後24時間)

TLE

最新Source: Space-Track

元期: Sep 14, 2026, 14:37 UTC

1 35637U 09039C   26257.60931801  .00000077  00000-0  48592-4 0  9991
2 35637  82.9550 305.5385 0014554 296.6645 216.9915 13.91745854668933

AllMySatでSL-8 R/Bをリアルタイム追跡

Download on the App Store